Temperature
19 19 19 19 19 18 19 18 18 19 19 19 19 19 19 19 19 19 19 19 19 18 18 18 18 18 18 18 18 18 18 18 17 17 17 17 17 17 17 17 17 17 17
19 19 19 19 19 19 19 19 19 19 19 19 19 19 19 19 18 18 19 19 18 18 18 18 18 18 18 18 18 18 18 18 17 17 17 17 17 17 17 17 17 17 17
19 19 19 19 19 19 19 19 19 19 19 19 19 19 19 19 18 18 18 18 18 18 18 18 18 18 18 18 18 18 18 18 17 17 17 17 17 17 17 17 17 17 16
19 19 19 19 19 19 19 19 19 19 19 19 19 19 19 19 19 18 18 18 18 18 18 18 18 18 18 18 18 18 18 18 17 17 17 17 17 17 17 17 17 17 16
19 19 19 19 19 19 19 19 19 19 19 19 19 19 19 19 19 18 18 18 18 18 18 18 18 18 18 18 18 18 18 18 17 17 17 17 17 17 17 17 16 16 16
19 19 19 19 19 19 19 19 19 19 19 19 19 19 19 19 19 19 19 19 19 18 18 18 18 18 18 18 18 18 17 17 17 17 17 17 17 17 17 17 17 17 16
19 19 19 19 19 19 19 19 19 19 19 19 19 19 19 19 19 19 19 19 18 18 18 18 18 18 18 18 18 18 17 17 17 17 17 17 17 17 17 17 17 16 16
19 19 19 19 18 19 18 19 19 19 19 19 19 19 19 19 19 19 19 19 18 18 18 18 18 18 18 18 18 18 18 17 17 17 17 17 17 17 17 17 17 16 16
19 19 19 18 18 18 18 18 18 18 19 19 19 19 19 19 19 19 19 19 19 18 18 18 18 18 18 17 17 17 17 17 17 17 17 17 17 17 17 17 17 17 16
19 19 19 18 18 18 18 18 18 18 18 18 19 19 19 19 19 19 19 19 19 18 18 18 18 18 18 18 17 17 17 17 17 17 17 17 17 17 17 17 16 16 16
19 19 18 18 18 18 18 18 18 18 18 18 18 18 18 19 19 18 18 18 18 18 18 18 18 18 17 17 17 17 17 17 17 17 17 17 17 17 17 17 16 16 16
19 19 18 18 18 18 18 18 18 18 18 18 18 18 18 18 18 18 18 18 18 18 18 18 18 17 17 17 17 17 17 17 17 17 17 17 17 17 16 16 16 16 16
19 19 18 18 18 18 18 18 18 18 18 18 18 18 18 18 18 18 18 18 18 18 18 18 18 18 17 17 17 17 17 17 17 17 17 17 16 16 16 16 16 16 16
19 19 18 18 18 18 17 18 17 17 17 17 17 17 17 17 18 18 18 18 18 18 18 18 18 17 17 17 17 17 17 16 17 17 17 16 16 16 16 16 16 16 16
18 18 18 18 18 18 17 17 17 17 17 17 17 17 17 17 17 17 17 17 17 17 17 17 17 17 17 17 17 17 17 16 16 16 16 16 16 16 16 16 16 16 16
18 18 18 18 18 17 17 18 17 17 17 17 17 17 17 17 17 17 17 17 17 17 17 17 17 17 17 17 17 17 16 16 16 16 16 16 16 16 16 16 15 15 15
18 18 18 18 17 17 17 17 17 17 16 16 16 16 16 17 17 17 17 17 17 17 17 17 17 17 16 16 17 16 16 16 16 16 16 16 16 16 15 15 15 15 15
18 18 18 18 17 17 17 17 17 17 16 16 16 16 16 16 16 16 16 16 16 16 16 16 16 16 16 16 16 16 16 16 16 16 16 16 15 15 15 15 15 15 15
18 18 18 18 17 17 17 17 17 17 16 16 16 16 16 16 16 16 16 16 16 16 16 16 16 16 16 16 16 16 16 16 15 15 15 15 15 15 15 15 15 15 15
18 17 17 17 17 17 17 17 17 16 16 16 16 16 16 16 16 16 16 16 16 16 16 16 16 16 16 16 15 15 15 15 15 15 15 15 15 15 15 15 15 15 14
17 17 17 17 17 17 17 17 16 16 16 16 16 16 16 15 16 16 15 15 15 15 15 15 15 15 15 15 15 15 15 15 15 15 15 15 15 15 15 15 14 14 14
17 17 17 17 17 16 17 16 16 16 16 16 15 16 15 15 15 15 15 15 15 15 15 15 15 14 14 14 14 14 14 14 14 14 14 14 14 14 14 14 14 14 14
17 17 17 17 17 17 16 16 16 16 16 15 15 15 15 15 15 15 15 15 15 15 14 14 14 14 14 14 14 14 14 14 14 14 14 14 14 14 14 14 14 14 14
17 17 17 17 16 16 16 16 16 15 15 15 15 15 15 15 15 15 15 15 15 14 14 14 14 14 14 14 14 14 14 14 14 14 14 14 14 14 14 14 14 14 14
17 16 16 16 16 16 16 16 16 15 15 15 15 15 15 15 14 14 14 14 14 14 14 14 14 14 14 14 14 14 14 13 13 13 13 13 13 13 13 13 13 13 13
16 16 16 16 16 16 16 16 15 15 15 14 14 14 14 14 14 14 14 14 14 14 14 13 14 14 14 14 13 13 13 13 13 13 13 13 13 13 13 13 13 13 13
Wind_Speed
3 2 2 2 2 2 2 2 1 1 1 1 1 1 1 2 4 7 8 10 10 9 8 8 8 7 7 6 6 6 7 7 8 8 9 8 8 8 8 9 10 10 10
2 1 1 1 1 2 2 2 2 1 1 1 1 1 1 2 3 5 9 10 10 9 8 8 8 8 7 6 6 6 6 7 8 8 8 8 9 9 8 8 8 10 10
3 1 1 1 0 1 3 2 2 1 2 2 2 2 2 2 3 4 6 9 9 9 9 9 8 8 7 7 6 5 5 6 7 8 8 9 8 9 9 9 9 8 9
3 1 1 1 1 2 1 2 1 1 1 1 1 2 2 2 3 4 5 7 8 9 9 10 9 8 7 7 6 6 5 5 6 6 7 7 7 8 8 8 7 7 8
2 1 1 0 2 1 1 1 1 1 1 1 2 3 2 2 3 3 3 5 7 8 9 11 11 9 9 8 7 6 5 6 6 7 7 6 6 6 7 7 8 7 8
2 0 1 1 0 0 0 1 1 1 1 2 2 1 2 2 3 3 2 3 5 8 10 10 10 10 10 9 8 7 6 5 6 6 6 6 6 6 6 7 6 6 7
2 1 1 0 0 1 1 1 1 2 2 1 1 1 1 2 3 3 2 1 3 5 7 9 9 8 9 10 10 8 7 6 6 5 5 5 5 5 6 7 7 7 7
1 2 1 0 1 1 1 0 1 1 1 0 0 1 1 1 2 3 3 3 2 2 3 6 7 7 7 8 9 10 9 8 7 7 7 6 6 5 6 6 7 7 7
1 1 1 1 0 1 1 1 1 1 1 1 0 0 0 1 1 1 2 2 2 1 1 3 5 7 7 7 8 10 10 9 8 8 7 6 6 6 6 6 7 7 7
1 2 2 1 1 1 1 1 1 1 1 2 1 0 1 1 1 1 1 1 2 2 2 2 2 4 6 6 8 9 11 10 9 8 7 6 5 5 6 6 6 6 7
2 2 2 1 1 0 1 0 1 1 2 2 2 1 1 0 2 1 1 2 1 2 1 1 1 2 4 5 5 8 11 11 9 8 8 7 6 5 5 6 6 5 6
2 2 2 1 1 1 0 1 1 1 2 2 3 2 1 1 2 1 1 2 2 2 2 1 1 1 3 4 4 6 10 11 10 9 8 7 6 6 6 6 6 5 5
2 3 2 2 1 1 1 0 1 1 2 2 2 3 2 2 2 1 1 2 2 1 1 2 2 2 2 3 4 6 8 11 11 10 9 7 6 6 6 6 6 5 5
2 3 3 3 2 1 0 0 1 1 1 2 3 3 3 3 3 2 2 2 2 2 2 2 1 2 2 4 5 8 7 10 11 10 9 9 8 7 7 7 7 6 6
3 3 3 3 2 1 1 0 0 1 1 1 2 3 3 3 3 3 2 1 2 3 3 2 1 2 2 4 7 6 6 9 11 11 11 10 9 8 8 8 8 7 7
2 3 3 3 2 2 2 1 1 1 1 1 2 2 3 3 4 3 2 2 2 2 3 2 2 1 1 2 6 5 6 10 13 13 12 11 10 9 8 9 8 8 7
3 3 3 3 3 2 2 1 1 1 1 2 3 2 3 3 3 4 3 2 2 2 3 2 2 1 1 2 3 5 6 8 9 13 13 12 11 10 9 8 8 8 8
4 3 3 3 3 3 2 2 2 2 2 2 3 3 3 4 3 3 4 4 3 3 2 3 2 2 3 3 4 4 4 6 7 11 14 13 12 11 10 10 9 8 8
4 4 3 3 3 2 2 2 2 3 3 3 2 2 3 4 4 3 4 4 4 4 2 3 3 2 2 2 3 4 4 3 5 7 11 12 12 12 11 11 10 9 9
4 4 4 3 4 3 3 3 3 3 3 3 3 2 2 2 3 4 4 3 4 4 4 3 3 2 2 2 2 2 3 2 3 3 4 7 10 11 11 11 10 10 10
5 4 4 3 4 4 3 2 3 4 3 3 3 3 3 1 1 3 4 3 4 4 4 4 3 2 2 2 2 3 3 3 2 1 1 3 4 5 7 9 10 11 11
4 4 4 5 5 4 4 3 3 3 3 3 3 3 3 3 3 4 4 5 5 5 4 4 4 3 3 3 3 4 3 3 3 1 1 4 3 4 4 6 9 11 11
5 5 5 4 4 3 3 3 3 4 4 3 3 3 4 2 1 2 4 6 5 6 5 4 4 4 3 2 3 5 4 4 4 3 3 4 3 3 3 5 9 11 12
4 4 4 4 4 4 4 4 4 5 4 3 3 3 2 2 2 2 3 3 3 3 4 4 4 4 3 2 3 5 5 5 4 3 3 3 3 2 2 3 8 11 11
4 4 4 4 4 3 4 5 4 4 4 4 4 3 3 1 2 2 3 3 3 3 4 3 4 4 5 5 4 3 4 4 4 3 1 2 2 1 1 1 4 9 9
4 4 3 3 4 4 5 5 4 3 3 3 4 3 1 1 1 1 2 3 3 4 4 4 3 5 5 6 6 4 4 4 3 2 1 1 2 1 1 1 1 3 5
Wind_Direction
113 119 121 159 176 157 176 192 186 197 212 221 218 178 186 113 124 130 143 152 150 152 156 161 168 172 176 184 195 206 212 213 212 212 212 214 214 214 216 222 222 221 225
111 100 114 153 159 174 178 191 199 204 226 197 206 157 173 132 137 144 148 156 163 163 163 165 172 176 178 183 194 204 212 216 215 214 213 214 217 219 221 222 224 223 221
120 123 130 168 197 224 179 192 216 209 207 201 195 173 180 165 150 147 154 164 166 174 174 171 170 175 182 187 195 203 211 217 220 220 220 220 221 224 225 227 226 228 227
116 149 157 170 223 227 204 193 185 225 217 198 178 184 178 156 165 167 175 172 169 171 176 179 177 178 182 184 189 195 204 212 215 216 217 219 223 229 231 227 224 226 229
124 174 166 206 237 213 204 231 126 228 238 241 201 185 186 171 177 174 182 175 170 165 166 181 185 187 191 190 191 193 198 209 210 211 214 218 221 229 235 232 231 234 236
119 177 204 209 289 64 41 23 7 269 224 251 256 167 182 184 181 178 194 177 170 173 173 170 179 192 197 196 198 198 201 208 211 211 214 220 223 228 232 229 230 236 241
149 199 360 120 134 73 46 20 357 276 245 218 268 222 197 202 181 173 167 189 185 174 166 166 177 181 188 199 203 204 206 209 213 213 217 221 228 231 231 232 232 235 240
128 134 103 358 74 119 138 78 272 288 285 163 253 270 205 206 224 184 162 190 197 182 171 180 181 175 174 170 191 202 205 210 214 216 219 223 228 232 235 234 231 233 238
144 91 108 64 54 176 145 208 259 279 285 274 219 4 355 2 287 196 186 180 167 192 207 186 183 180 181 166 172 192 203 208 211 216 217 218 223 230 232 231 230 229 231
159 126 112 102 25 24 83 254 117 292 286 292 278 141 211 121 303 311 277 174 164 196 237 235 198 176 174 171 164 174 190 201 206 210 214 217 222 226 230 232 231 229 230
155 132 120 121 130 78 105 322 46 330 317 312 320 308 305 236 264 251 283 271 233 200 189 223 234 159 151 164 171 174 182 193 198 204 211 218 221 222 225 227 231 234 233
163 148 134 129 133 115 29 22 46 311 327 332 330 327 328 299 292 288 269 264 258 234 189 190 213 187 175 152 183 176 180 186 194 200 207 214 219 222 227 229 229 230 230
167 154 152 158 163 171 209 121 82 307 299 314 315 308 309 299 290 289 273 273 274 265 226 201 188 172 191 148 168 187 186 184 190 198 204 212 220 224 225 228 227 229 234
167 152 151 162 176 196 213 91 204 252 268 286 290 299 304 303 302 291 281 290 293 283 254 241 170 174 165 165 187 192 194 192 196 198 204 212 219 224 226 226 225 227 232
176 149 157 161 164 164 173 166 223 280 300 283 290 292 292 297 293 286 287 275 267 284 283 250 211 195 186 158 174 196 188 203 204 206 208 213 219 225 227 226 225 227 232
166 161 166 167 176 181 184 197 226 234 277 278 269 297 308 303 306 302 291 274 262 264 273 281 264 246 240 234 195 202 200 203 206 210 212 214 214 218 224 226 227 230 234
177 171 165 166 169 183 176 186 243 236 254 283 293 294 299 299 306 313 310 299 281 266 267 287 304 307 228 252 225 231 223 207 211 214 213 213 213 214 219 224 228 229 231
183 178 175 178 188 187 182 198 239 262 259 259 279 301 303 295 293 298 303 305 297 286 274 279 279 278 255 236 237 241 237 233 214 213 210 209 210 211 214 218 223 225 227
187 187 181 187 199 194 199 221 229 248 266 267 267 282 294 301 301 296 292 300 298 297 284 273 268 267 269 260 253 263 258 250 251 221 205 205 209 211 214 216 218 222 223
193 193 190 198 201 193 212 232 239 245 252 264 274 276 279 286 293 294 291 300 299 296 289 285 281 274 287 297 274 268 274 259 269 258 212 207 209 213 215 215 215 219 221
196 188 191 205 211 203 213 214 238 244 251 258 260 261 251 238 254 283 293 307 306 299 292 288 282 287 289 308 294 280 275 279 276 272 255 225 203 206 215 218 217 219 218
191 188 199 206 217 218 191 188 224 254 251 254 256 259 247 218 233 251 270 276 273 279 294 295 292 293 290 291 292 287 283 282 275 251 254 259 216 209 203 202 206 208 211
195 198 202 196 200 209 199 196 217 249 248 251 258 262 269 264 239 269 264 271 278 270 257 268 283 290 292 293 283 283 280 273 269 266 246 253 229 221 212 203 198 202 207
198 202 203 199 202 209 192 198 215 239 244 247 251 253 254 269 280 302 287 280 272 281 267 254 264 277 286 284 269 268 270 267 260 256 238 252 251 242 223 185 198 202 206
194 200 196 196 198 203 189 189 199 239 243 248 246 247 245 222 301 315 284 287 293 297 295 280 272 278 276 274 272 287 284 279 276 262 255 239 260 271 252 225 207 199 199
197 204 193 193 194 190 181 179 192 239 249 248 243 218 165 149 268 299 282 280 282 291 300 297 279 271 263 260 250 240 265 277 281 275 249 244 255 258 262 252 149 180 204
Height
1545 1546 1546 1547 1547 1548 1549 1550 1550 1551 1552 1553 1553 1554 1554 1555 1555 1555 1555 1555 1556 1556 1556 1557 1557 1558 1558 1559 1559 1560 1560 1561 1561 1562 1563 1564 1565 1565 1566 1567 1568 1569 1569
1545 1546 1547 1547 1548 1549 1549 1550 1550 1551 1552 1552 1553 1553 1554 1554 1555 1555 1555 1555 1555 1556 1556 1556 1557 1557 1557 1558 1558 1558 1559 1559 1560 1560 1561 1562 1563 1563 1564 1565 1565 1566 1567
1546 1546 1547 1548 1548 1549 1549 1550 1550 1551 1551 1552 1552 1553 1553 1554 1554 1555 1555 1555 1555 1555 1556 1556 1556 1556 1557 1557 1557 1557 1557 1558 1558 1558 1559 1560 1561 1561 1562 1562 1563 1564 1565
1545 1546 1547 1547 1548 1548 1549 1549 1550 1550 1551 1551 1552 1552 1553 1553 1554 1554 1554 1554 1554 1554 1555 1555 1556 1556 1556 1556 1556 1556 1556 1556 1556 1556 1557 1558 1558 1559 1559 1560 1561 1561 1562
1545 1545 1546 1547 1548 1548 1548 1549 1549 1550 1551 1551 1551 1552 1552 1553 1553 1553 1553 1554 1554 1554 1554 1555 1555 1555 1555 1555 1555 1555 1555 1555 1555 1555 1555 1556 1556 1557 1557 1558 1558 1559 1560
1545 1545 1546 1547 1547 1548 1548 1549 1549 1550 1550 1550 1551 1551 1551 1552 1552 1552 1553 1553 1553 1553 1553 1554 1554 1554 1554 1554 1554 1554 1554 1554 1554 1554 1554 1554 1554 1555 1555 1555 1556 1556 1557
1545 1546 1546 1546 1547 1547 1547 1548 1549 1549 1549 1550 1550 1550 1551 1551 1551 1551 1552 1552 1553 1553 1553 1552 1553 1553 1553 1553 1553 1553 1552 1552 1552 1552 1552 1552 1552 1552 1553 1553 1553 1553 1553
1545 1546 1545 1546 1546 1546 1547 1547 1548 1548 1549 1550 1550 1550 1550 1551 1550 1551 1551 1551 1552 1552 1552 1552 1552 1552 1552 1551 1551 1551 1551 1550 1550 1550 1550 1550 1550 1550 1550 1550 1550 1551 1551
1544 1545 1545 1545 1545 1546 1546 1547 1547 1548 1548 1549 1550 1550 1550 1549 1550 1550 1550 1550 1550 1550 1551 1551 1551 1550 1550 1550 1549 1549 1549 1549 1548 1548 1548 1548 1548 1548 1548 1548 1548 1548 1548
1544 1545 1545 1545 1545 1545 1546 1546 1547 1547 1548 1548 1549 1549 1549 1549 1549 1549 1549 1549 1548 1548 1548 1549 1549 1548 1548 1548 1547 1547 1547 1547 1546 1546 1546 1546 1546 1545 1545 1545 1545 1546 1546
1543 1543 1544 1544 1544 1544 1545 1545 1546 1546 1547 1547 1547 1548 1548 1548 1548 1549 1548 1548 1547 1547 1546 1546 1546 1546 1546 1545 1545 1544 1544 1544 1544 1544 1544 1543 1543 1543 1543 1543 1543 1543 1543
1542 1542 1543 1543 1543 1543 1544 1544 1544 1545 1545 1546 1546 1547 1547 1547 1547 1547 1546 1546 1546 1545 1544 1544 1544 1544 1544 1543 1542 1542 1542 1542 1542 1542 1541 1541 1541 1541 1541 1541 1541 1541 1541
1541 1541 1541 1541 1541 1542 1542 1543 1543 1543 1544 1544 1545 1545 1545 1546 1546 1545 1545 1545 1544 1543 1543 1543 1542 1542 1541 1540 1540 1540 1540 1540 1540 1540 1539 1539 1539 1538 1538 1538 1538 1538 1538
1539 1539 1539 1540 1540 1540 1541 1541 1542 1542 1542 1543 1543 1543 1544 1544 1544 1544 1544 1543 1542 1542 1541 1540 1539 1539 1539 1538 1538 1538 1537 1537 1537 1537 1537 1537 1536 1536 1536 1536 1536 1536 1535
1537 1537 1538 1538 1538 1539 1539 1539 1540 1540 1541 1541 1541 1542 1542 1542 1542 1542 1542 1541 1541 1540 1539 1538 1538 1537 1537 1536 1535 1535 1534 1535 1535 1535 1534 1534 1534 1533 1533 1533 1533 1533 1533
1535 1536 1536 1536 1536 1537 1537 1537 1537 1538 1538 1539 1539 1539 1539 1539 1539 1539 1539 1539 1539 1538 1537 1536 1535 1534 1533 1533 1533 1532 1531 1531 1532 1532 1531 1531 1531 1530 1530 1530 1530 1530 1529
1533 1533 1534 1534 1534 1534 1534 1535 1535 1536 1536 1537 1537 1537 1537 1537 1536 1536 1536 1536 1536 1536 1534 1533 1533 1532 1531 1531 1530 1529 1529 1529 1528 1528 1528 1528 1528 1527 1527 1527 1527 1527 1526
1530 1531 1531 1532 1532 1532 1532 1533 1533 1534 1534 1534 1534 1534 1534 1535 1534 1533 1533 1533 1533 1532 1532 1531 1530 1529 1529 1528 1527 1527 1526 1526 1525 1525 1524 1524 1524 1524 1524 1524 1524 1524 1523
1527 1528 1529 1529 1530 1530 1530 1531 1531 1531 1532 1532 1532 1532 1532 1531 1531 1530 1530 1530 1530 1529 1529 1528 1527 1527 1526 1525 1524 1524 1523 1522 1522 1521 1521 1521 1521 1521 1521 1520 1520 1520 1520
1525 1526 1526 1527 1527 1528 1528 1528 1529 1529 1529 1530 1530 1530 1529 1529 1528 1528 1528 1527 1527 1526 1526 1525 1524 1523 1523 1522 1521 1520 1519 1519 1519 1519 1518 1518 1518 1517 1517 1517 1517 1517 1517
1522 1523 1524 1524 1525 1525 1525 1525 1526 1527 1527 1527 1527 1527 1527 1526 1526 1526 1525 1524 1524 1523 1523 1522 1521 1521 1520 1519 1518 1517 1516 1516 1516 1516 1515 1514 1514 1513 1513 1513 1513 1513 1513
1519 1520 1521 1521 1522 1522 1523 1523 1523 1523 1524 1524 1523 1523 1524 1523 1523 1523 1522 1522 1521 1520 1520 1519 1519 1518 1517 1516 1515 1515 1513 1512 1512 1512 1511 1511 1511 1510 1510 1510 1510 1510 1509
1516 1516 1517 1518 1518 1519 1520 1520 1520 1520 1521 1521 1521 1521 1521 1521 1520 1520 1519 1518 1518 1517 1517 1517 1516 1515 1514 1513 1512 1511 1511 1510 1509 1509 1508 1507 1507 1506 1507 1506 1506 1506 1506
1513 1513 1514 1515 1515 1516 1516 1517 1517 1517 1517 1518 1518 1518 1518 1517 1517 1517 1516 1515 1514 1514 1513 1513 1512 1512 1511 1510 1509 1508 1507 1506 1505 1505 1505 1504 1504 1504 1503 1503 1503 1503 1503
1510 1510 1511 1511 1512 1512 1513 1513 1514 1514 1514 1515 1515 1515 1515 1514 1514 1513 1512 1511 1511 1510 1510 1510 1509 1508 1508 1507 1506 1505 1504 1503 1502 1502 1502 1501 1500 1500 1500 1500 1500 1500 1500
1507 1508 1508 1508 1508 1509 1510 1510 1510 1511 1511 1512 1512 1512 1512 1511 1511 1510 1509 1508 1507 1507 1507 1506 1506 1505 1504 1503 1503 1502 1501 1500 1499 1499 1498 1498 1497 1497 1496 1496 1497 1497 1497